STARLINK-32705, 62479

Orbit data source: Space-Track

STARLINK-32705, 62479 is a payload satellite owned by SpaceX/Seattle (US) in LEO that was launched on Tue, 31 Dec 2024 UTC via an FALCON 9 launch vehicle from the Air Force Eastern Test Range (AFETR). Payloads include a variety of satellites, spacecraft, and rockets equipped with specific instruments for various scientific and technological missions. These include communications satellites like Starlink; space stations such as the ISS; scientific satellites like the Hubble; Earth observation satellites from companies like Planet Labs, Umbra, and HawkEye 360; GPS; miniature CubeSats for education and research; and military/defense satellites.

Loading next visibility...
STARLINK-32705 details
Identifier
62479, 2024-254T
Orbit
LEO
Last TLE update18 hours ago
Origin
Flag of USSpaceX/Seattle (US)
ManufacturerSpaceX/Seattle
MissionOperational Commercial Communications
Bus & MotorSTARLINK V2M, Unknown motor
Mass730 kg wet, ~700 kg dry
Launch date (UTC)
2024-12-31 (1 month ago)
Launch vehicle
FALCON 9
Launch site
Air Force Eastern Test Range (AFETR)
Object type
Payload
Rocket body
Debris
Shape & HBRBox + 2 Pan, 29 m
Radar Cross Section33.884 m², Large (>1 m²)

Expand to show TLE details & history

TLE from 18 hours ago
0 STARLINK-32705
1 62479U 24254T   25035.49756336  .00001115  00000-0  33976-4 0  9993
2 62479  43.0013 108.6950 0002533 291.7175  68.3412 15.40683059  6556
Epoch: 2025-02-04T11:56Z
Definitive object data (Epoch: 2025-02-04T11:56:29.474Z)
Latitude0.00001°
Longitude154.6702°
Altitude443.229 km
Speed7.648 km/s
True Right ascension07h 14m 46s
True Declination0° 00' 00"
Sunlit
Object was in full shadow at TLE epoch
Visualization TLE readout
Latitude-20.0823°
Longitude-6.71203°
Altitude448.441 km
Speed7.644 km/s
Apparent Right ascension20h 16m 33s
Apparent Declination-29° 33' 08"
Sunlit
Object is in daylight
Visualization observer readout
Local Sidereal Time07:59:55
Azimuth340.535° N
Elevation-79.091°
Doppler factor1
Orbital elements
Apogee altitude447.777 km
Perigee altitude444.32 km
Semi-major axis6,824.185 km
Eccentricity0.0002533
Inclination43.0013°
RAAN108.695°
Arg. of periapsis291.7175°
True anomaly68.36818°
Mean anomaly68.3412°
Eccentric anomaly68.35469°
Mean motion3.85006 °/min
BSTAR0.000033976
Orbital period93.51 mins
Loading maneuver chart data...
Loading historical data...
Loading historical data...
Loading historical data...
Loading historical data...
Loading historical data...
Loading historical data...
Loading historical data...

STARLINK-32705 Visibility forecast

Observer location: undefined°, undefined

Span
Click to sort rows by Start time (UTC) header in descending order
Start Az.
Max El. time (UTC)
Max El. Az.
Max El.
End time (UTC)
End Az.
4 mins2025-02-05 08:24:49.775Z218.728° SW2025-02-05 08:26:49.775Z123.149° SE36.772°2025-02-05 08:28:49.775Z81.916° E
5 mins2025-02-05 10:02:49.775Z284.339° WNW2025-02-05 10:04:49.775Z19.532° NNE38.182°2025-02-05 10:07:49.775Z70.834° E
5 mins2025-02-05 11:40:49.775Z297.058° NW2025-02-05 11:42:49.775Z12.375° NNE40.204°2025-02-05 11:45:49.775Z88.469° E
5 mins2025-02-05 13:18:49.775Z272.071° WNW2025-02-05 13:20:49.775Z208.334° SW36.295°2025-02-05 13:23:49.775Z133.718° SE
|